Location: Unspecified
(42.3650°N, 71.1030°W)
Time: 15:46:37
(UTC+00:00)

S-56A Canister/Altair - Pass Details

Date: 27 June 2024
Orbit: 638 x 2487 km, 38.9° (Epoch: 20 July)

Event Time Altitude Azimuth Distance (km) Brightness Sun altitude
Rises 01:00:02 0° 246° (WSW) 3,775 11.5 -6.0°
Reaches altitude 10° 01:02:20 10° 243° (WSW) 3,015 10.9 -6.3°
Maximum altitude 01:09:50 64° 164° (SSE) 1,634 9.0 -7.4°
Drops below altitude 10° 01:21:17 10° 86° (E) 4,487 11.0 -8.9°
Sets 01:25:27 0° 84° (E) 5,723 11.6 -9.5°
